Regional Weather Roundup
Issued by NWS

Home | Current Version | Previous Version | Graphics & Text | Print | Product List | Glossary On
Versions: 1 2 3 4 5 6 7 8 9 10 11 12 13 14 15 16 17 18 19 20 21 22 23 24 25 26 27 28 29 30 31 32 33 34 35 36 37 38 39 40 41 42 43 44 45 46 47 48 49 50
000
ASUS45 KBOU 290107
RWRCO

WEATHER ROUNDUP FOR COLORADO
NATIONAL WEATHER SERVICE DENVER/BOULDER CO
700 PM MDT THU AUG 28 2014

NOTE: "FAIR" INDICATES FEW OR NO CLOUDS BELOW 12000 FEET WITH NO
SIGNIFICANT WEATHER AND/OR OBSTRUCTIONS TO VISIBILITY.

COZ001>005-013-030-031-290200-
...NORTHWEST COLORADO...

CITY           SKY/WX    TMP DP  RH WIND       PRES   REMARKS
CRAIG          PTCLDY    70  48  45 W8        30.20F
HAYDEN         CLOUDY    64  46  52 NW3       30.22S
MEEKER         MOCLDY    68  50  52 CALM      30.23F
MOUNT WERNER   NOT AVBL
STEAMBOAT SPGS CLOUDY    59  52  77 SE5       30.25F
WALDEN         PTCLDY    59  45  58 SW6       30.31S
$$

COZ006>008-011-290200-
...WEST CENTRAL VALLEYS...

CITY           SKY/WX    TMP DP  RH WIND       PRES   REMARKS
GRAND JUNCTION CLOUDY    74  48  39 S5        30.13F
MONTROSE       CLEAR     71  46  40 CALM      30.22F
EAGLE          PTCLDY    66  46  48 E10       30.25F
RIFLE          PTCLDY    69  51  52 W6        30.17F
DELTA          PTCLDY    75  50  41 CALM      30.17F
NUCLA          CLEAR     72  43  35 CALM      30.24
$$

COZ017>023-064>068-290200-
...SOUTHWEST COLORADO...

CITY           SKY/WX    TMP DP  RH WIND       PRES   REMARKS
DURANGO        CLEAR     73  38  27 N13       30.18S
CORTEZ         CLEAR     74  44  34 N12G18    30.19S
PAGOSA SPRINGS NOT AVBL
TELLURIDE      PTCLDY    57  37  47 NW3       30.39F
WOLF CREEK PAS CLEAR     43  32  65 N10       30.54S
$$

COZ009-010-012-014-032>034-037-058>063-290200-
...CENTRAL COLORADO...

CITY           SKY/WX    TMP DP  RH WIND       PRES   REMARKS
ASPEN          MOCLDY    61  43  51 N8        30.30F
BUENA VISTA    PTCLDY    64  32  30 NW20      30.28S
COPPER MTN     CLOUDY    41  37  87 W21       30.54S
BERTHOUD PASS  FOG       34  32  93 NW21G29   30.54S VSB<1/4 WCI  22
COTTONWOOD PAS MOCLDY    55  30  38 CALM      30.41R
GUNNISON       CLEAR     63  37  39 NW10G16   30.31S
KREMMLING      CLEAR     61  43  51 CALM      30.30F
LEADVILLE      CLOUDY    48  38  68 N12       30.42R
MONARCH PASS   PTCLDY    45  32  61 NW15G23   30.64S
SALIDA         PTCLDY    66  33  28 N3        30.33S
SUNLIGHT       PTCLDY    50  43  76 NW3       30.52S
WILKERSON PASS NOT AVBL
$$

COZ069>075-290200-
...SAN LUIS VALLEY/SANGRE DE CRISTO MOUNTAINS...

CITY           SKY/WX    TMP DP  RH WIND       PRES   REMARKS
ALAMOSA        CLOUDY    63  43  48 W6        30.26S
LA VETA PASS   NOT AVBL
SAGUACHE       NOT AVBL
$$

COZ035-036-038>040-290200-
...NORTHERN COLORADO FRONT RANGE...

CITY           SKY/WX    TMP DP  RH WIND       PRES   REMARKS
DENVER INTL AP CLOUDY    63  48  58 CALM      30.14F
DMNS CITY PARK   N/A     64  48  56 S2        30.14F
AURORA         MOCLDY    61  48  62 W6        30.17F
FRONT RANGE AP NOT AVBL
ERIE MUNI ARPT PTCLDY    65  51  60 CALM      30.13S
BOULDER MUN AP PTCLDY    64  46  52 S5        30.13F
CENTENNIAL     MOCLDY    61  48  62 W6        30.18F
BROOMFIELD     MOCLDY    64  48  55 W6        30.16F
FORT COLLINS   MOCLDY    63  54  72 S7        30.11F
LONGMONT       MOCLDY    65  51  58 S6        30.13F
$$

COZ041-046-047-076>085-087-088-290200-
...PIKES PEAK/PALMER DIVIDE AND SOUTHERN FOOTHILLS...

CITY           SKY/WX    TMP DP  RH WIND       PRES   REMARKS
COLO. SPRINGS  MOCLDY    59  48  67 NW10      30.22F
A. F. ACADEMY  PTCLDY    57  47  71 N7        30.23F
ELLICOTT       LGT RAIN  57  48  72 N8        30.19F
FALCON         MOCLDY    58  43  57 NW14G20   30.24F
FORT CARSON    MOCLDY    60  49  67 NW7       30.20F
LIMON          MOCLDY    63  48  58 NW18      30.13F
MONUMENT HILL  CLOUDY    54  45  71 NW9       30.24F
TRINIDAD       NOT AVBL
$$

COZ042>045-048>051-090-091-290200-
...NORTHEAST COLORADO...

CITY           SKY/WX    TMP DP  RH WIND       PRES   REMARKS
GREELEY ARPT   MOCLDY    66  48  52 SW9       30.10F
AKRON          MOCLDY    62  54  74 NW9       30.07F
BURLINGTON     MOCLDY    70  55  59 NW20      30.03R
WRAY             N/A     70  58  64 NW14G20   30.00R
STERLING       MOCLDY    70  57  64 N13       30.03S
HOLYOKE        PTCLDY    66  55  68 N8        30.00S
FORT MORGAN    MOCLDY    68  49  50 N3        30.08F
$$

COZ086-089-092>099-290200-
...SOUTHEAST COLORADO...

CITY           SKY/WX    TMP DP  RH WIND       PRES   REMARKS
PUEBLO         CLOUDY    63  55  75 N14       30.14S
LA JUNTA       LGT RAIN  62  57  83 NW14      30.11R
LAMAR          MOCLDY    73  54  51 VRB5      30.01R
SPRINGFIELD      N/A     72  51  47 N10       30.04R
$$



USA.gov is the U.S. government's official web portal to all federal, state and local government web resources and services.